Vorticity
9 7 5 5 5 5 6 6 6 7 7 7 7 6 6 5 5 6 6 7 8 9 10 10 10 11 11 12 12 12 12 11 11 11 11 11 11 9 8 8 13 23 34 44 40 29 17 7 4 4 8 14 21 22 19 12 1 -5 -8 -7 -2 2 5 7 6 5 5 6 8
7 5 3 3 3 4 5 6 6 6 6 7 7 7 7 7 8 9 9 10 10 11 11 12 12 13 13 13 13 13 13 13 13 13 13 14 14 13 12 9 9 14 23 37 42 38 27 14 7 3 2 2 11 20 27 27 19 11 6 2 1 2 4 7 5 4 4 5 7
7 5 3 2 2 3 4 5 6 6 7 7 7 8 9 10 11 11 12 12 12 12 12 12 13 13 13 14 13 13 14 14 15 16 17 18 19 18 16 13 10 10 15 26 38 41 36 23 12 5 0 -4 -1 8 17 21 24 23 19 11 7 6 7 8 6 5 4 5 7
6 5 3 2 2 3 4 5 6 7 8 8 9 9 10 11 12 12 13 12 12 11 11 12 13 13 13 14 14 14 15 16 18 19 21 23 24 24 22 18 14 11 12 17 30 38 40 32 19 9 2 -3 -6 -1 6 6 4 9 14 12 8 7 8 8 6 5 4 5 7
5 4 3 3 3 4 4 6 7 8 9 9 10 11 11 12 13 13 13 12 11 11 11 12 12 13 13 14 14 15 16 18 20 22 24 27 29 29 27 23 18 13 11 13 22 32 38 37 26 15 7 2 -3 -1 6 14 6 11 18 16 10 8 9 9 6 4 4 5 8
5 4 3 3 3 4 5 6 7 8 9 10 10 11 12 12 12 13 12 12 11 11 11 12 13 13 14 15 15 16 16 18 20 22 26 29 32 34 33 29 23 17 13 11 17 26 33 37 31 22 14 8 3 -1 1 17 26 28 27 24 18 13 10 7 4 3 4 5 8
5 4 4 4 4 5 6 6 7 7 8 9 10 10 11 12 12 12 12 12 12 12 12 13 14 15 15 15 15 15 15 17 18 21 24 28 32 35 35 33 27 20 14 11 14 21 27 32 31 27 22 16 11 2 -3 8 33 34 24 14 13 12 8 4 2 2 3 5 7
8 7 6 6 6 6 6 7 7 7 8 8 9 10 11 12 12 13 12 12 12 13 13 14 15 16 16 15 14 14 14 15 17 19 21 25 29 33 35 34 29 22 16 12 13 17 22 27 28 28 26 22 18 7 2 12 47 45 26 8 7 7 5 1 1 2 3 5 8
11 10 9 8 8 7 7 7 7 7 7 8 9 10 11 12 13 13 13 13 13 13 14 16 16 16 15 14 13 13 13 14 16 18 20 22 26 30 32 33 29 24 18 13 13 15 19 23 26 27 27 25 20 11 10 31 68 57 27 5 6 5 3 -1 -1 1 3 6 9
13 12 11 10 9 8 7 7 7 7 7 7 8 9 10 12 13 13 13 13 13 14 16 17 17 16 15 13 13 13 14 15 16 18 20 22 24 26 28 30 27 23 19 14 13 14 16 20 24 27 28 26 19 10 15 47 74 58 26 6 5 5 4 1 -2 -1 2 7 12
13 12 12 11 10 9 8 8 8 8 8 8 8 9 10 12 12 13 13 13 14 15 16 18 18 16 15 13 13 14 15 16 18 19 21 22 24 25 26 27 26 23 19 16 14 14 15 18 22 27 29 27 16 8 13 38 54 45 27 15 11 9 9 7 3 0 2 10 15
12 12 11 11 10 10 9 9 9 9 9 9 9 10 11 12 13 13 13 13 14 15 16 18 18 16 15 14 14 14 15 17 18 20 21 22 23 24 26 26 24 22 20 17 16 15 16 18 22 27 29 24 12 7 9 19 25 25 23 22 20 18 17 16 11 9 10 14 16
12 11 11 11 10 10 10 10 10 9 9 9 10 11 11 12 13 13 13 13 14 15 16 18 18 16 15 15 15 15 15 17 18 18 18 17 20 24 27 27 26 24 21 19 18 17 18 19 22 25 25 18 8 6 8 10 8 10 14 20 23 23 21 19 15 16 18 17 12
12 11 11 11 11 10 10 10 10 10 10 10 10 11 12 12 13 13 14 14 14 15 16 18 17 16 15 16 16 16 16 16 16 15 12 11 16 23 28 30 29 27 24 22 20 20 20 22 23 23 19 7 3 6 11 13 8 6 7 12 15 16 17 16 15 15 15 12 5
12 12 12 12 11 11 11 11 10 10 10 10 10 11 12 12 12 13 13 14 13 14 15 17 16 15 14 16 17 18 17 16 15 11 8 6 14 21 26 28 30 29 28 25 22 22 22 23 24 22 15 0 -3 3 12 19 18 11 3 -1 1 4 8 10 10 8 4 0 -3
13 13 13 12 12 12 12 12 11 10 10 10 10 11 11 12 12 13 13 13 13 13 14 15 15 14 13 13 17 19 19 18 14 10 6 6 13 18 21 20 21 23 25 27 26 25 24 23 24 23 18 4 -5 -5 3 18 25 18 3 -10 -10 -5 1 4 3 0 -3 -4 -4
14 14 14 13 13 14 14 13 12 12 11 11 11 11 11 11 11 12 13 13 13 12 13 13 13 13 12 11 15 18 21 21 17 12 8 7 12 15 16 14 11 11 14 22 28 30 28 24 22 22 21 18 6 -4 -5 8 21 19 8 -8 -13 -10 -5 -4 -6 -5 -0 5 3
14 14 14 14 14 14 15 14 14 13 12 11 11 10 10 10 11 12 13 13 13 12 11 11 11 11 11 10 12 16 20 23 22 18 13 10 11 13 16 16 13 8 6 9 21 30 34 30 21 13 11 19 25 21 16 18 25 24 16 3 -2 -2 -1 -6 -10 -6 4 15 13
14 14 14 14 15 15 15 15 15 14 13 12 11 10 10 10 11 12 13 13 13 12 11 10 10 10 10 9 10 12 16 21 23 22 18 13 11 12 16 21 22 16 8 2 8 18 29 35 26 9 -5 -8 15 31 40 40 35 28 20 12 10 7 4 -1 -4 -2 6 18 20
14 15 15 15 15 15 15 16 16 15 14 13 12 10 10 10 11 12 13 13 13 12 11 9 9 9 9 9 9 10 12 16 20 22 20 16 12 11 14 21 26 24 17 8 3 6 13 24 26 18 4 -10 -8 1 11 15 11 7 5 7 9 8 5 1 -1 1 7 17 21
14 14 15 15 15 16 16 16 16 16 15 14 12 11 10 10 11 13 13 13 13 12 11 9 9 8 9 9 8 8 8 10 15 19 22 20 13 9 9 16 24 27 25 18 11 6 4 7 13 17 17 13 5 -2 -7 -10 -11 -10 -7 -1 3 5 4 3 3 5 9 15 18
14 14 15 15 15 16 16 16 16 16 16 15 13 11 10 10 11 12 13 13 13 13 12 10 9 9 9 9 8 7 6 6 9 14 19 22 17 11 7 10 19 26 30 29 24 18 12 7 6 8 12 15 16 13 9 3 -1 -3 -2 -1 1 3 4 5 7 9 11 13 15
13 13 14 14 15 15 15 16 16 17 17 16 14 12 11 11 12 12 12 13 14 14 13 11 10 10 10 9 8 6 5 5 5 8 13 19 20 16 11 8 14 21 28 32 32 30 27 22 17 13 11 12 14 15 16 15 13 11 10 8 6 5 5 6 8 10 11 12 13
12 13 13 13 14 14 15 15 16 16 17 16 15 14 12 12 12 11 11 11 13 14 14 12 11 11 11 10 9 7 5 4 3 4 6 11 16 17 14 10 12 16 20 24 29 32 32 32 29 26 22 19 18 18 18 18 18 17 15 13 11 8 7 8 9 9 10 11 11
12 12 12 12 13 13 14 15 15 15 16 17 16 15 14 13 12 11 10 10 11 13 15 15 13 12 11 11 9 7 6 4 2 2 2 4 8 11 13 12 12 13 14 14 16 20 24 28 28 28 27 26 24 22 20 19 16 14 12 10 9 9 9 10 10 11 11 11 12
11 11 11 11 12 13 13 14 14 15 15 16 18 18 16 15 13 12 10 9 9 11 14 17 16 14 12 10 7 6 6 6 4 2 2 2 3 5 7 10 11 13 13 12 11 11 13 16 19 22 23 24 23 21 19 16 13 10 9 8 9 10 12 12 12 13 13 14 15
11 10 10 10 11 12 13 13 14 14 15 16 19 20 19 16 14 12 11 10 9 10 11 15 18 17 15 11 8 5 4 3 3 4 4 4 3 3 3 5 7 8 11 13 15 14 13 11 12 13 14 15 15 14 13 11 10 10 10 11 12 13 13 13 13 14 16 18 19
11 10 10 10 11 11 12 12 13 14 14 16 19 20 20 18 15 13 11 10 11 10 10 11 16 18 18 15 11 6 2 -0 1 3 4 5 5 4 4 3 4 4 4 6 10 13 14 13 13 12 12 10 9 8 8 7 8 9 10 11 11 12 12 13 14 16 18 20 22
10 10 10 10 10 11 11 12 13 13 14 15 18 20 21 20 16 13 11 10 11 11 10 10 13 16 19 19 16 10 5 1 1 2 3 4 5 5 5 4 4 3 2 1 1 4 7 8 10 11 13 13 12 11 9 8 8 8 9 9 10 10 12 13 16 19 21 23 23
10 10 10 10 10 11 11 12 12 13 13 14 16 18 20 21 18 14 12 10 11 11 12 12 11 12 15 19 19 16 11 5 2 1 2 3 4 4 4 4 4 4 3 2 1 3 4 3 4 5 7 10 12 13 14 14 13 12 12 13 13 14 16 18 20 22 24 24 23
10 10 10 10 10 11 11 11 11 12 12 12 14 16 18 20 19 16 13 11 12 12 12 12 10 9 10 14 19 20 18 12 6 3 1 2 2 3 4 4 4 3 2 1 2 4 5 4 3 3 3 4 5 8 10 13 14 15 15 15 16 17 19 20 21 22 22 21 20
10 10 10 10 10 10 10 10 11 11 11 12 12 13 16 18 18 16 14 13 12 12 11 11 11 10 9 10 14 18 21 21 16 10 5 2 2 2 2 4 4 4 3 1 1 3 4 4 4 4 4 4 4 4 5 6 8 10 12 13 13 14 15 15 16 16 15 14 12
10 10 10 10 10 10 10 10 10 10 10 11 11 12 13 15 16 16 16 15 13 12 11 12 11 11 10 9 10 13 17 22 22 19 15 10 7 6 5 6 6 5 5 4 3 3 4 4 4 4 4 4 5 5 5 5 5 6 7 8 9 9 8 8 7 5 4 3 2
12 12 11 11 10 10 9 9 9 9 10 10 11 11 11 12 14 15 15 15 14 13 12 12 12 12 11 10 9 9 11 15 20 22 22 19 16 13 12 12 13 12 11 10 8 7 6 5 5 4 4 3 4 5 6 7 7 8 8 8 8 7 6 5 3 1 -1 -3 -3
15 14 14 13 13 11 10 9 9 9 9 9 10 10 10 11 12 13 14 15 15 14 14 13 13 13 12 11 10 10 10 12 15 18 21 23 21 20 19 20 24 24 20 16 15 14 13 11 9 7 5 4 4 4 5 6 8 9 11 12 12 11 11 9 7 6 4 3 2
18 18 17 17 16 14 13 12 11 10 9 9 9 10 10 10 11 11 12 13 14 14 14 14 14 14 14 13 12 11 11 12 13 15 18 20 21 21 22 24 30 31 29 26 24 23 20 17 15 13 10 8 7 7 6 6 7 8 9 11 12 13 13 12 11 10 9 8 8
20 20 20 19 19 18 17 16 15 13 12 10 10 10 10 10 10 10 10 11 12 13 14 14 14 14 14 14 13 12 12 11 12 14 15 16 18 19 21 24 28 28 27 29 28 26 24 20 19 19 18 17 16 14 13 11 9 8 7 7 7 8 8 8 7 7 7 6 8
19 20 20 20 21 21 21 21 20 18 15 13 12 11 10 10 10 10 10 10 11 11 12 13 13 13 13 13 13 13 12 11 12 13 14 15 16 17 19 22 26 23 19 20 20 20 20 21 22 23 24 24 24 23 21 19 17 15 13 10 8 7 6 6 6 6 6 6 8
17 18 19 20 20 21 22 24 23 22 19 17 14 13 11 11 10 10 10 10 10 10 10 11 11 12 12 13 13 13 13 12 12 12 13 14 15 16 17 19 22 17 12 13 7 8 13 20 22 24 24 25 26 27 27 26 26 25 24 22 20 18 16 15 14 14 15 15 16
14 15 16 18 19 20 22 23 24 23 22 21 19 16 14 13 12 12 11 11 10 10 10 10 10 10 10 11 12 12 13 12 12 12 13 13 14 15 15 16 19 16 12 12 3 2 7 18 23 24 23 22 24 26 28 29 29 30 31 31 31 30 29 28 28 27 26 26 25
12 13 14 15 16 18 19 21 23 24 24 24 23 21 19 17 15 14 13 12 11 11 10 9 9 9 9 10 10 11 11 12 12 12 12 13 14 14 14 14 17 16 14 13 8 4 3 8 17 22 23 21 22 23 24 25 26 28 29 30 32 33 33 32 32 32 31 30 28
Height
3006 3004 3002 3001 2999 2998 2996 2995 2994 2992 2991 2989 2988 2986 2985 2983 2982 2981 2979 2978 2976 2974 2973 2971 2970 2969 2968 2966 2966 2964 2963 2963 2962 2962 2961 2961 2960 2959 2959 2958 2958 2958 2958 2958 2958 2959 2960 2961 2962 2963 2964 2965 2966 2967 2969 2971 2972 2973 2972 2972 2973 2974 2974 2976 2977 2979 2980 2981 2983
3004 3003 3001 3000 2998 2996 2995 2994 2993 2991 2990 2988 2986 2985 2983 2982 2980 2979 2977 2976 2974 2972 2970 2969 2967 2966 2965 2963 2962 2961 2960 2959 2958 2958 2957 2957 2956 2956 2955 2954 2954 2954 2954 2954 2955 2956 2956 2957 2959 2960 2960 2961 2963 2964 2965 2966 2968 2969 2969 2969 2970 2971 2971 2973 2974 2976 2977 2979 2980
3003 3001 3000 2998 2997 2995 2994 2992 2991 2990 2988 2986 2985 2983 2982 2980 2978 2976 2975 2973 2972 2970 2968 2966 2965 2963 2961 2960 2959 2958 2956 2955 2954 2953 2953 2952 2952 2951 2951 2951 2950 2951 2951 2951 2951 2952 2953 2954 2955 2956 2957 2958 2959 2960 2961 2962 2964 2965 2965 2964 2966 2967 2968 2970 2971 2973 2974 2976 2977
3002 3000 2998 2997 2995 2994 2992 2991 2989 2988 2986 2985 2983 2981 2980 2978 2976 2974 2972 2971 2969 2967 2966 2964 2962 2960 2959 2957 2956 2954 2953 2952 2950 2949 2948 2948 2947 2947 2946 2946 2946 2946 2947 2947 2947 2948 2949 2950 2951 2952 2953 2954 2955 2956 2957 2959 2960 2961 2961 2961 2962 2964 2965 2967 2968 2970 2972 2973 2974
3000 2999 2997 2996 2994 2992 2991 2989 2987 2986 2984 2983 2981 2980 2978 2976 2974 2972 2970 2968 2967 2965 2963 2961 2959 2957 2956 2954 2952 2951 2950 2948 2947 2945 2944 2943 2943 2942 2942 2942 2942 2942 2943 2944 2944 2945 2945 2946 2947 2948 2949 2950 2951 2952 2953 2955 2956 2957 2958 2959 2959 2960 2962 2964 2966 2967 2969 2971 2971
2999 2997 2996 2994 2992 2991 2989 2987 2986 2984 2982 2981 2979 2977 2976 2974 2972 2970 2968 2966 2964 2963 2961 2959 2957 2955 2953 2951 2950 2948 2946 2945 2943 2942 2941 2939 2938 2938 2938 2938 2938 2939 2940 2940 2941 2941 2942 2943 2943 2944 2946 2947 2948 2948 2950 2951 2953 2954 2955 2955 2955 2957 2959 2961 2963 2965 2966 2968 2969
2997 2995 2994 2992 2990 2989 2987 2985 2984 2982 2981 2979 2977 2975 2973 2971 2970 2968 2966 2964 2962 2961 2959 2957 2955 2952 2951 2949 2947 2945 2944 2942 2941 2939 2937 2936 2935 2935 2934 2934 2935 2936 2936 2937 2937 2938 2939 2940 2940 2941 2942 2944 2945 2945 2946 2947 2949 2951 2951 2951 2951 2954 2956 2958 2960 2962 2964 2965 2966
2995 2993 2992 2990 2988 2986 2985 2983 2982 2980 2979 2977 2975 2973 2971 2969 2967 2966 2964 2962 2961 2958 2956 2954 2952 2950 2948 2946 2945 2943 2941 2939 2938 2936 2935 2934 2932 2932 2931 2931 2932 2933 2933 2934 2935 2935 2936 2936 2937 2938 2939 2941 2942 2943 2943 2944 2946 2947 2947 2947 2949 2951 2953 2955 2957 2959 2961 2962 2964
2993 2991 2990 2988 2986 2985 2983 2981 2980 2978 2977 2975 2973 2971 2969 2967 2966 2964 2962 2960 2958 2956 2954 2952 2950 2948 2946 2944 2942 2941 2939 2937 2936 2934 2933 2931 2930 2930 2929 2929 2929 2930 2931 2932 2932 2933 2933 2934 2935 2936 2937 2939 2940 2941 2941 2942 2944 2943 2942 2943 2946 2948 2950 2952 2954 2956 2958 2960 2961
2991 2989 2988 2986 2984 2983 2981 2980 2978 2976 2975 2973 2971 2970 2968 2966 2964 2962 2960 2958 2956 2954 2952 2950 2948 2946 2944 2942 2941 2939 2937 2935 2934 2932 2931 2930 2929 2928 2927 2927 2927 2928 2928 2929 2930 2931 2931 2931 2932 2933 2935 2936 2938 2939 2940 2941 2941 2940 2940 2940 2941 2944 2946 2949 2952 2954 2956 2957 2959
2989 2987 2986 2984 2982 2981 2979 2977 2976 2975 2973 2971 2970 2968 2966 2964 2962 2960 2958 2956 2955 2953 2951 2948 2946 2944 2942 2941 2939 2937 2935 2934 2932 2930 2929 2928 2927 2926 2925 2925 2925 2926 2926 2927 2928 2928 2929 2929 2930 2931 2932 2934 2937 2938 2939 2939 2940 2939 2938 2938 2939 2941 2943 2946 2949 2951 2953 2955 2956
2986 2985 2983 2981 2980 2978 2977 2975 2974 2972 2971 2969 2967 2966 2964 2962 2960 2958 2956 2955 2953 2951 2949 2947 2945 2943 2941 2939 2937 2935 2934 2932 2931 2929 2927 2926 2925 2924 2924 2923 2923 2924 2924 2925 2926 2926 2927 2927 2928 2929 2930 2932 2935 2936 2937 2937 2938 2938 2937 2936 2937 2939 2941 2942 2945 2947 2949 2951 2952
2985 2983 2981 2979 2978 2976 2975 2973 2971 2970 2969 2967 2966 2964 2962 2960 2958 2956 2954 2953 2951 2949 2947 2945 2943 2941 2940 2938 2936 2934 2932 2931 2929 2927 2926 2925 2924 2923 2922 2922 2922 2922 2922 2923 2924 2925 2925 2926 2926 2927 2928 2930 2932 2934 2935 2935 2936 2936 2936 2935 2935 2936 2937 2939 2940 2942 2945 2947 2949
2982 2981 2979 2977 2976 2974 2972 2971 2969 2968 2966 2965 2963 2962 2960 2958 2956 2954 2952 2951 2949 2947 2945 2944 2942 2940 2938 2936 2935 2932 2931 2929 2928 2926 2925 2924 2923 2921 2921 2921 2921 2921 2921 2921 2922 2922 2923 2923 2924 2925 2926 2928 2930 2932 2932 2932 2934 2934 2934 2934 2933 2933 2934 2936 2938 2939 2941 2943 2945
2980 2978 2977 2975 2973 2971 2970 2968 2967 2965 2964 2963 2961 2960 2958 2956 2954 2952 2951 2949 2947 2946 2944 2942 2941 2939 2937 2936 2933 2931 2930 2928 2927 2926 2924 2923 2922 2921 2920 2920 2920 2920 2920 2921 2921 2921 2921 2922 2922 2923 2924 2926 2928 2929 2930 2930 2931 2932 2933 2933 2932 2932 2932 2934 2936 2937 2939 2941 2943
2978 2976 2974 2973 2971 2969 2967 2966 2965 2963 2962 2961 2959 2958 2956 2954 2952 2951 2949 2947 2946 2944 2942 2941 2939 2938 2936 2935 2933 2931 2929 2927 2926 2925 2924 2923 2921 2920 2919 2919 2920 2920 2919 2920 2920 2920 2920 2921 2921 2922 2923 2924 2925 2926 2927 2928 2929 2929 2930 2931 2931 2931 2932 2933 2934 2936 2937 2939 2941
2976 2974 2972 2970 2969 2967 2966 2964 2962 2961 2960 2958 2957 2956 2954 2952 2951 2949 2947 2946 2944 2942 2941 2939 2938 2936 2935 2934 2932 2930 2928 2927 2925 2924 2923 2922 2921 2920 2919 2919 2920 2920 2919 2918 2918 2919 2919 2920 2921 2922 2922 2923 2924 2924 2925 2926 2926 2926 2927 2929 2930 2931 2931 2932 2933 2934 2935 2937 2938
2974 2972 2970 2968 2966 2965 2963 2962 2961 2959 2957 2956 2955 2954 2952 2951 2949 2947 2946 2944 2943 2941 2940 2938 2937 2935 2934 2933 2931 2929 2928 2926 2925 2924 2923 2922 2921 2920 2919 2919 2919 2919 2919 2918 2917 2918 2919 2920 2921 2921 2922 2923 2924 2924 2924 2925 2924 2925 2926 2927 2928 2930 2931 2931 2932 2933 2933 2934 2935
2971 2970 2968 2966 2964 2963 2961 2960 2958 2957 2956 2954 2953 2951 2950 2949 2947 2946 2944 2943 2941 2940 2938 2937 2936 2934 2933 2932 2930 2929 2927 2926 2924 2923 2922 2921 2921 2920 2919 2918 2918 2918 2917 2917 2916 2917 2918 2919 2920 2921 2921 2922 2923 2924 2924 2924 2924 2925 2925 2926 2927 2928 2929 2929 2930 2931 2931 2931 2931
2970 2968 2966 2964 2962 2961 2959 2958 2956 2955 2953 2952 2951 2950 2948 2947 2946 2944 2943 2941 2940 2939 2937 2936 2935 2933 2932 2931 2930 2928 2927 2925 2924 2922 2921 2921 2920 2919 2919 2918 2917 2916 2916 2916 2916 2916 2916 2917 2918 2919 2920 2920 2921 2922 2923 2923 2923 2923 2924 2924 2924 2925 2926 2926 2927 2928 2928 2928 2929
2968 2966 2964 2962 2961 2959 2957 2956 2954 2953 2951 2950 2949 2947 2946 2946 2944 2943 2941 2940 2939 2938 2936 2935 2934 2933 2931 2930 2929 2927 2926 2925 2923 2922 2921 2920 2919 2919 2918 2917 2916 2916 2915 2915 2915 2915 2915 2916 2917 2918 2918 2919 2919 2920 2920 2920 2921 2921 2921 2921 2922 2923 2923 2924 2925 2925 2926 2926 2926
2966 2965 2963 2961 2959 2957 2956 2954 2952 2951 2950 2948 2947 2946 2945 2944 2943 2941 2940 2939 2938 2936 2935 2934 2933 2932 2931 2929 2928 2927 2926 2924 2923 2922 2921 2920 2919 2918 2918 2917 2916 2915 2914 2914 2914 2914 2914 2914 2915 2916 2916 2917 2917 2917 2918 2918 2919 2919 2920 2920 2921 2921 2922 2923 2923 2923 2924 2924 2924
2965 2963 2961 2959 2957 2956 2954 2952 2951 2949 2948 2946 2945 2944 2943 2942 2941 2940 2939 2938 2936 2935 2934 2933 2932 2931 2930 2929 2927 2926 2925 2924 2923 2921 2921 2920 2919 2918 2917 2917 2916 2915 2914 2913 2913 2912 2912 2913 2913 2914 2914 2915 2915 2916 2916 2916 2917 2917 2917 2918 2919 2919 2920 2921 2921 2921 2921 2921 2922
2964 2962 2960 2958 2956 2954 2952 2951 2949 2948 2946 2945 2943 2942 2941 2940 2939 2938 2937 2936 2935 2934 2933 2932 2931 2930 2930 2928 2926 2925 2924 2923 2922 2921 2920 2919 2918 2917 2917 2916 2916 2915 2914 2913 2912 2912 2911 2911 2911 2912 2912 2913 2913 2914 2914 2915 2915 2915 2916 2916 2916 2917 2918 2918 2919 2919 2919 2920 2920
2963 2961 2959 2956 2955 2952 2951 2949 2947 2946 2944 2943 2941 2940 2939 2938 2937 2936 2936 2935 2933 2932 2931 2930 2930 2929 2928 2927 2926 2924 2923 2922 2921 2920 2919 2918 2918 2917 2916 2916 2915 2915 2915 2914 2912 2911 2911 2911 2911 2911 2911 2911 2912 2912 2912 2913 2913 2914 2914 2915 2915 2916 2916 2916 2917 2917 2917 2918 2918
2961 2959 2957 2955 2953 2951 2949 2948 2946 2944 2943 2941 2940 2939 2937 2936 2935 2934 2933 2932 2931 2931 2930 2929 2928 2927 2927 2926 2925 2924 2922 2921 2920 2919 2918 2918 2917 2916 2916 2915 2914 2914 2914 2914 2913 2912 2911 2911 2911 2910 2910 2910 2910 2911 2911 2911 2912 2912 2913 2913 2913 2914 2914 2915 2915 2915 2916 2916 2916
2960 2958 2956 2954 2952 2950 2948 2946 2945 2943 2941 2940 2938 2937 2936 2935 2934 2932 2931 2930 2929 2928 2928 2927 2926 2925 2925 2924 2924 2922 2921 2920 2919 2918 2917 2917 2916 2916 2915 2915 2914 2913 2913 2913 2913 2912 2911 2911 2910 2910 2909 2909 2909 2909 2910 2910 2910 2911 2911 2911 2912 2912 2912 2913 2913 2913 2914 2914 2915
2958 2956 2955 2953 2951 2949 2947 2945 2943 2942 2940 2938 2937 2936 2934 2933 2932 2931 2930 2928 2927 2926 2926 2925 2924 2924 2923 2922 2922 2921 2920 2919 2918 2917 2916 2916 2915 2915 2914 2914 2914 2913 2912 2912 2913 2911 2909 2910 2909 2909 2909 2909 2908 2908 2908 2908 2909 2909 2909 2910 2910 2910 2911 2911 2911 2912 2912 2913 2914
2957 2955 2953 2951 2950 2948 2946 2944 2942 2940 2939 2937 2936 2934 2933 2932 2931 2929 2928 2927 2926 2925 2923 2922 2922 2921 2921 2920 2920 2919 2919 2918 2917 2916 2915 2915 2914 2914 2913 2913 2913 2912 2912 2911 2912 2910 2908 2908 2908 2908 2908 2908 2907 2907 2907 2907 2907 2907 2908 2908 2908 2909 2909 2910 2910 2911 2911 2912 2912
2955 2953 2951 2950 2948 2946 2945 2943 2941 2939 2937 2936 2934 2933 2931 2930 2929 2928 2926 2925 2924 2922 2921 2921 2920 2919 2919 2918 2918 2917 2917 2916 2916 2915 2914 2913 2913 2912 2912 2912 2912 2911 2911 2911 2911 2909 2907 2906 2907 2907 2906 2907 2906 2906 2906 2906 2906 2906 2906 2907 2907 2907 2908 2909 2909 2910 2911 2911 2911
2954 2952 2950 2948 2947 2945 2943 2941 2940 2938 2936 2935 2933 2931 2930 2929 2928 2926 2925 2924 2922 2921 2920 2919 2918 2917 2917 2917 2916 2916 2915 2915 2914 2914 2913 2912 2911 2911 2911 2911 2911 2911 2910 2910 2909 2908 2906 2905 2905 2905 2905 2905 2905 2905 2905 2905 2905 2905 2906 2906 2906 2906 2907 2907 2908 2909 2909 2910 2910
2952 2950 2948 2947 2945 2943 2942 2940 2938 2937 2935 2933 2932 2930 2929 2927 2926 2925 2924 2922 2921 2920 2918 2917 2916 2915 2915 2915 2914 2914 2913 2913 2913 2912 2912 2911 2911 2910 2909 2909 2909 2909 2909 2909 2908 2906 2905 2904 2903 2903 2902 2902 2903 2903 2903 2904 2904 2904 2904 2905 2905 2906 2906 2906 2907 2907 2908 2908 2908
2950 2949 2947 2945 2943 2942 2940 2938 2936 2935 2934 2932 2931 2929 2927 2926 2925 2924 2922 2921 2920 2918 2917 2915 2914 2913 2913 2912 2912 2912 2911 2911 2911 2910 2910 2910 2909 2908 2908 2908 2908 2908 2908 2909 2906 2904 2903 2902 2902 2901 2901 2901 2901 2901 2901 2901 2902 2902 2903 2903 2904 2904 2905 2905 2905 2906 2906 2907 2907
2948 2946 2945 2943 2941 2940 2938 2936 2935 2933 2932 2931 2929 2927 2926 2925 2923 2922 2921 2920 2918 2917 2916 2914 2913 2912 2911 2911 2910 2910 2909 2909 2909 2908 2908 2908 2907 2907 2906 2906 2906 2906 2907 2908 2904 2902 2902 2901 2900 2899 2899 2899 2899 2900 2900 2900 2900 2901 2901 2901 2902 2902 2903 2903 2903 2904 2905 2905 2905
2946 2944 2942 2941 2939 2937 2936 2934 2932 2931 2930 2929 2927 2926 2925 2923 2922 2921 2919 2918 2917 2916 2915 2913 2912 2911 2910 2909 2908 2908 2907 2907 2907 2906 2906 2906 2906 2905 2905 2904 2904 2903 2904 2905 2901 2900 2900 2899 2897 2897 2897 2897 2898 2898 2898 2899 2899 2899 2899 2899 2900 2900 2900 2901 2901 2902 2902 2903 2903
2944 2942 2940 2938 2937 2935 2933 2931 2930 2929 2928 2926 2925 2924 2923 2921 2920 2919 2917 2916 2916 2914 2913 2912 2911 2910 2908 2907 2907 2906 2905 2905 2905 2905 2904 2904 2904 2904 2903 2903 2902 2902 2901 2902 2900 2898 2897 2896 2895 2895 2895 2896 2896 2897 2897 2897 2897 2897 2897 2897 2897 2898 2898 2898 2899 2899 2900 2900 2901
2942 2940 2938 2936 2934 2932 2931 2929 2928 2927 2926 2924 2923 2922 2921 2919 2918 2917 2916 2915 2914 2912 2911 2910 2909 2908 2907 2906 2905 2904 2904 2903 2903 2902 2902 2902 2902 2902 2902 2901 2901 2901 2900 2899 2899 2897 2895 2894 2893 2893 2894 2894 2895 2895 2895 2895 2895 2895 2895 2895 2895 2896 2896 2896 2896 2897 2897 2898 2898
2940 2938 2936 2934 2932 2930 2929 2927 2926 2924 2923 2922 2921 2920 2918 2917 2916 2915 2914 2913 2911 2911 2910 2909 2907 2906 2906 2905 2904 2903 2902 2902 2901 2901 2901 2901 2901 2901 2900 2900 2900 2899 2898 2898 2899 2896 2893 2893 2892 2892 2892 2892 2892 2893 2893 2893 2893 2893 2893 2893 2893 2893 2894 2894 2894 2895 2895 2896 2896
2939 2936 2934 2932 2930 2928 2927 2925 2924 2922 2921 2919 2918 2917 2916 2915 2914 2913 2912 2911 2910 2908 2907 2906 2906 2905 2904 2903 2902 2902 2901 2901 2900 2899 2899 2899 2899 2899 2899 2899 2899 2898 2898 2897 2898 2896 2893 2892 2891 2891 2891 2891 2891 2891 2891 2891 2890 2890 2890 2890 2890 2890 2891 2891 2892 2892 2892 2893 2893
2938 2936 2933 2931 2929 2927 2925 2923 2922 2920 2918 2917 2916 2914 2913 2912 2911 2911 2910 2909 2908 2906 2906 2905 2904 2903 2902 2901 2901 2900 2900 2899 2899 2898 2898 2897 2897 2897 2897 2897 2897 2897 2896 2896 2896 2896 2895 2893 2891 2889 2889 2889 2889 2889 2889 2888 2888 2888 2888 2887 2887 2887 2888 2888 2889 2889 2890 2890 2890
2937 2935 2933 2930 2928 2926 2924 2922 2920 2918 2917 2915 2914 2912 2911 2910 2909 2908 2907 2906 2906 2905 2904 2903 2902 2901 2901 2900 2899 2899 2898 2898 2897 2897 2896 2896 2896 2896 2896 2896 2896 2896 2895 2895 2894 2895 2895 2893 2891 2889 2888 2888 2888 2887 2887 2887 2886 2886 2886 2886 2886 2886 2886 2886 2886 2887 2887 2887 2888